Regional Weather Roundup
Issued by NWS

Home | Current Version | Previous Version | Text Only | Print | Product List | Glossary Off
Versions: 1 2 3 4 5 6 7 8 9 10 11 12 13 14 15 16 17 18 19 20 21 22 23 24 25 26 27 28 29 30 31 32 33 34 35 36 37 38 39 40 41 42 43 44 45 46 47 48 49 50

000
ASUS43 KMPX 011101
RWRMN
WEATHER ROUNDUP FOR MINNESOTA
NATIONAL WEATHER SERVICE TWIN CITIES/CHANHASSEN MN
600 AM CDT WED OCT 01 2014


NOTE: "FAIR" INDICATES FEW OR NO CLOUDS BELOW 12,000 FEET WITH NO
SIGNIFICANT WEATHER AND/OR OBSTRUCTIONS TO VISIBILITY. N/A MEANS
CURRENT SKY AND/OR WEATHER CONDITIONS ARE NOT AVAILABLE.

MNZ060>063-068>070-011200-
   Twin Cities Metro

CITY           SKY/WX    TMP DP  RH WIND       PRES   REMARKS
TWIN CITIES    CLOUDY    50  44  80 SE12      29.85S
ST PAUL        LGT RAIN  51  46  83 SE15      29.86S
CRYSTAL        CLOUDY    53  44  71 SE12G17   29.82F
BLAINE         CLOUDY    54  46  76 SE13      29.84S
LAKEVILLE      CLOUDY    48  46  93 SE8       29.84S
EDEN PRAIRIE   CLOUDY    52  46  80 SE9       29.82F
SOUTH ST PAUL  CLOUDY    50  46  87 SE7       29.85S
LAKE ELMO      LGT RAIN  50  45  81 SE9       29.87S
$$
MNZ001>005-007-008-013>017-022>024-027-028-011200-
   Northwest Minnesota

CITY           SKY/WX    TMP DP  RH WIND       PRES   REMARKS
BEMIDJI        CLOUDY    53  49  86 S14       29.69S
HALLOCK        CLOUDY    63  54  72 S23G31    29.47S
ROSEAU         CLOUDY    57  52  82 S23       29.56F
WARROAD        CLOUDY    54  50  87 SE21G26   29.59F
THIEF RVR FALL CLOUDY    59  54  82 S21G26    29.56S
CROOKSTON      CLOUDY    61  55  82 SW18G32   29.57R
FOSSTON        MOCLDY    57  52  82 S18       29.62S
DETROIT LAKES  CLOUDY    59  55  88 S13       29.68R
PARK RAPIDS    CLOUDY    52  49  89 SE18      29.72S
MAHNOMEN       CLOUDY    58  54  88 S13G22    29.63R
$$
MNZ006-009>011-018-025>026-011200-
   North Central Minnesota

CITY           SKY/WX    TMP DP  RH WIND       PRES   REMARKS
BAUDETTE       CLOUDY    52  46  80 S10G16    29.67S
FLAG ISLAND    MOCLDY    54  48  82 SE35G40   29.58F
INTL FALLS     CLOUDY    50  45  83 S8        29.74F
WASKISH        MOCLDY    52  48  87 SE14G22   29.68S
BIG FORK       CLOUDY    50  45  81 SE13      29.77S
LONGVILLE      CLOUDY    52  48  87 SE12G22   29.76S
GRAND RAPIDS   CLOUDY   N/A N/A N/A SE13G20   29.79R
CRANE LAKE     MOCLDY    48  45  87 S5        29.81F
ORR            MOCLDY    48  43  81 SE9G16    29.77F
COOK           CLOUDY    48  45  87 SE7       29.81S
WALKER         CLOUDY    51  47  87 SE12G21   29.73S
$$
MNZ012-019>021-037-011200-
   Northeast Minnesota

CITY           SKY/WX    TMP DP  RH WIND       PRES   REMARKS
DULUTH         CLOUDY    47  42  83 SE14      29.86S
ELY            CLOUDY    46  43  87 SE12      29.84F
HIBBING        CLOUDY    50  44  80 SE10      29.83S
EVELETH        CLOUDY    46  43  87 SE8       29.85S
DULUTH HARBOR  CLOUDY    50  45  81 E7        29.89S
TWO HARBORS    CLOUDY    46  41  81 SE6       29.87F
SILVER BAY     PTCLDY    46  46 100 SE3       29.89S
GRAND MARAIS     N/A     49  45  86 E5        29.94F
G MARAIS ARPRT FOG       43  39  87 SE5       29.92F VSB<1/4
$$
MNZ029>031-032-039>041-046>048-054>057-064-011200-
   West Central Minnesota

CITY           SKY/WX    TMP DP  RH WIND       PRES   REMARKS
FERGUS FALLS   MOCLDY    61  57  88 S15G21    29.68S
WHEATON        PTCLDY    57  55  94 SE12G17   29.68S
MORRIS         MOCLDY    61  57  88 SE12      29.70R FOG
ALEXANDRIA     CLOUDY    55  54  96 SE13      29.74S FOG
ELBOW LAKE     CLOUDY    59  57  94 S14       29.69S
WADENA         CLOUDY    52  52 100 SE10      29.73R FOG
GLENWOOD       DRIZZLE   55  54  94 SE8       29.75R
APPLETON       CLOUDY    63  57  82 SE7       29.70S
BENSON         CLOUDY    57  57 100 S10       29.72S FOG
ORTONVILLE     CLOUDY    61  57  88 SE5       29.69S
MADISON        MOCLDY    66  61  82 S5        29.70S
WILLMAR        CLOUDY    55  52  88 SE13      29.76S FOG
$$
MNZ033>034-036-042>043-049>051-058-059-011200-
   Central Minnesota

CITY           SKY/WX    TMP DP  RH WIND       PRES   REMARKS
ST CLOUD       CLOUDY    53  46  77 SE14      29.80S
SAUK CENTRE    CLOUDY    52  51  97 SE9       29.76S FOG
PAYNESVILLE    CLOUDY    51  49  93 E13       29.77S
AITKIN         CLOUDY    52  46  82 SE8       29.79S
PINE RIVER     CLOUDY    52  48  87 SE12      29.80S
BRAINERD       CLOUDY    50  47  89 S10G22    29.78F
STAPLES        CLOUDY    48  48 100 SE8       29.74S FOG
LONG PRAIRIE   CLOUDY    50  50 100 SE10      29.76S FOG
LITTLE FALLS   CLOUDY    50  45  81 SE10      29.78F
LITCHFIELD     CLOUDY    54  52  94 SE13G20   29.79S
BUFFALO        CLOUDY    51  45  79 SE10      29.82S
MAPLE LAKE     CLOUDY    53  49  85 SE5       29.82S
$$
MNZ037-044-045-052-053-011200-
   East Central Minnesota

CITY           SKY/WX    TMP DP  RH WIND       PRES   REMARKS
MORA           MOCLDY    46  41  81 SE6       29.85F
CAMBRIDGE      CLOUDY    52  43  71 SE7       29.82F
RUSH CITY      CLOUDY    49  44  83 SE8       29.85F
MOOSE LAKE     CLOUDY    46  43  87 S5        29.83S
HINCKLEY       CLOUDY    48  45  87 SE3       29.85S
CLOQUET        CLOUDY    46  43  87 SE6       29.85S
MCGREGOR       CLOUDY    48  45  87 SE10G17   29.82S
$$
MNZ071>073-080-081-089-090-097-098-011200-
   Southwest Minnesota

CITY           SKY/WX    TMP DP  RH WIND       PRES   REMARKS
MONTEVIDEO     CLOUDY    61  61 100 S6        29.73R
GRANITE FALLS  CLOUDY    61  58  90 SE9       29.74S
CANBY          CLOUDY    63  60  90 SE3       29.72R
MARSHALL       CLOUDY    63  55  77 S12       29.71R
REDWOOD FALLS  CLOUDY    57  55  93 SE13      29.74S
OLIVIA         CLOUDY    57  54  88 SE9       29.75R
PIPESTONE      CLOUDY    61  59  94 S9        29.72S FOG
WINDOM         CLOUDY    57  55  94 SE9       29.76S
WORTHINGTON    CLOUDY    57  55  94 S9        29.76R
JACKSON        CLOUDY    57  54  88 SE10      29.76F
TRACY          CLOUDY    61  58  91 S10       29.73S
SLAYTON        CLOUDY    59  58  97 S10       29.74S FOG
$$
MNZ065>067-074>077-082>085-091>093-011200-
   South Central Minnesota

CITY           SKY/WX    TMP DP  RH WIND       PRES   REMARKS
MANKATO        CLOUDY    54  46  76 SE15G21   29.80S
NEW ULM        CLOUDY    55  55 100 SE9       29.78S
ST JAMES       CLOUDY    57  54  88 SE9       29.78F
FAIRMONT       CLOUDY    54  48  82 SE15      29.78F
GLENCOE        CLOUDY    54  46  76 E8        29.80S
FARIBAULT      CLOUDY    52  46  82 SE14      29.84S
OWATONNA       RAIN      52  46  82 SE17G24   29.83S
WASECA         RAIN      50  45  81 SE14      29.83F
ALBERT LEA     RAIN      50  50 100 SE17G23   29.83S
$$
MNZ078>079-086>088-094>096-011200-
   Southeast Minnesota

CITY           SKY/WX    TMP DP  RH WIND       PRES   REMARKS
ROCHESTER      RAIN      47  46  97 SE17G24   29.88F FOG
RED WING       RAIN      52  46  82 SE10      29.87S
STANTON        CLOUDY    52  46  79 SE8       29.84R
DODGE CENTER   DRIZZLE   48  46  93 SE17      29.86S
WINONA         DRIZZLE   48  45  87 SE9       29.92F
AUSTIN         RAIN      48  46  93 SE13      29.86F
PRESTON        CLOUDY    47  45  92 SE10      29.91R
$$
ABBREVIATIONS USED IN REMARKS
   TC - TEMPERATURES IN CELSIUS
  WCI - WIND CHILL INDEX
   HX - HEAT INDEX
  VSB - VISIBILITY
$$


USA.gov is the U.S. government's official web portal to all federal, state and local government web resources and services.